Regional Weather Roundup
Issued by NWS

Home | Current Version | Previous Version | Graphics & Text | Print | Product List | Glossary On
Versions: 1 2 3 4 5 6 7 8 9 10 11 12 13 14 15 16 17 18 19 20 21 22 23 24 25 26 27 28 29 30 31 32 33 34 35 36 37 38 39 40 41 42 43 44 45 46 47 48 49 50
000
ASUS43 KMKX 250100
RWRWI

WISCONSIN REGIONAL WEATHER ROUNDUP
NATIONAL WEATHER SERVICE MILWAUKEE/SULLIVAN WI
700 PM CST WED DEC 24 2014

NOTE: "FAIR" INDICATES FEW OR NO CLOUDS BELOW 12,000 FEET WITH NO
SIGNIFICANT WEATHER AND/OR OBSTRUCTIONS TO VISIBILITY.

WIZ001-002-006>008-014>016-023>028-250200-
NORTHWEST WISCONSIN

CITY           SKY/WX    TMP DP  RH WIND       PRES   REMARKS
SUPERIOR ARPT  MOCLDY    33  31  94 SW3       29.56F
ASHLAND        CLOUDY    32  31  96 S3        29.55F
HAYWARD        CLOUDY    32  29  88 CALM      29.55F
SIREN          MOCLDY    32  30  93 CALM      29.58S
CUMBERLAND     CLOUDY    32  28  86 NW7       29.57S WCI  26
RICE LAKE      CLOUDY    33  31  90 CALM      29.58F
CHETEK         CLOUDY    33  31  91 CALM      29.58S
LADYSMITH      CLOUDY    33  30  90 NW7       29.57F WCI  27
EAU CLAIRE     NOT AVBL
MENOMONIE      CLOUDY    35  31  86 W6        29.60R WCI  30
NEW RICHMOND   CLOUDY    33  32  96 W3        29.59F
OSCEOLA        CLOUDY    34  33  96 W3        29.62S
$$

WIZ003>005-009-010-017-018-250200-
NORTH CENTRAL WISCONSIN

CITY           SKY/WX    TMP DP  RH WIND       PRES   REMARKS
MANITOWISH WTR CLOUDY    29  29 100 NW5       29.50F WCI  24
ARBOR VITAE    CLOUDY    32  30  92 NW5       29.49F WCI  27
WOODRUFF       CLOUDY    32  30  92 NW5       29.49F WCI  27
RHINELANDER    CLOUDY    30  27  88 NW3       29.49S
EAGLE RIVER    CLOUDY    29  28  96 N6        29.47F WCI  23
LAND O LAKES   CLOUDY    30  29  94 NW5       29.48F WCI  25
PHILLIPS       CLOUDY    31  29  96 NW6       29.52S WCI  25
TOMAHAWK       CLOUDY    31  28  92 CALM      29.51R
MEDFORD        CLOUDY    31  29  90 NW7       29.52S WCI  25
MERRILL        CLOUDY    32  30  92 NW7       29.51S WCI  26
$$

WIZ029-030-035-036-043>047-250200-
CENTRAL WISCONSIN

CITY           SKY/WX    TMP DP  RH WIND       PRES   REMARKS
WAUSAU         CLOUDY    32  29  88 NW9       29.50S WCI  24
MOSINEE        CLOUDY    32  32 100 NW8       29.52S WCI  25
MARSHFIELD     CLOUDY    34  30  85 NW12      29.53S WCI  25
STEVENS POINT  CLOUDY    31  29  89 NW5       29.52S WCI  27
WAUPACA        CLOUDY    35  35  98 W5        29.51S WCI  31
WAUTOMA        CLOUDY    34  34 100 NW6       29.54R WCI  29
WISC RAPIDS    CLOUDY    33  29  85 W8        29.55R WCI  26
CAMP DOUGLAS   NOT AVBL
$$

WIZ011>013-019>022-031-037>040-048>050-250200-
NORTHEAST WISCONSIN

CITY           SKY/WX    TMP DP  RH WIND       PRES   REMARKS
ANTIGO         CLOUDY    30  28  93 NW9       29.48R WCI  22
SHAWANO        CLOUDY    35  34  96 CALM      29.49S
OCONTO         CLOUDY    32  32 100 NW5       29.48S WCI  28
STURGEON BAY   CLOUDY    34  30  86 NW12      29.46F WCI  25
GREEN BAY      FLURRIES  33  32  96 MISG      29.48F
MANITOWOC      MIX PCPN  36  36 100 NW9       29.47S WCI  29
APPLETON       CLOUDY    34  34 100 NW9       29.49S WCI  26
CLINTONVILLE   CLOUDY    34  32  93 W6        29.49S WCI  29
OSHKOSH        CLOUDY    34  32  92 NW9       29.49F WCI  27
$$

WIZ032>034-041-042-053>061-250200-
SOUTHWEST WISCONSIN

CITY           SKY/WX    TMP DP  RH WIND       PRES   REMARKS
LA CROSSE      CLOUDY    37  30  75 NW8       29.60S WCI  31
SPARTA         CLOUDY    34  32  90 W6        29.59S WCI  29
VIROQUA        CLOUDY    33  33 100 NW6       29.57S WCI  27
BOSCOBEL       CLOUDY    37  31  78 W6        29.61R WCI  32
PRAIRIE DU CHI CLOUDY    36  31  82 W9        29.62R WCI  29
PLATTEVILLE    CLOUDY    35  32  90 W9        29.60R WCI  27
$$

WIZ056-057-062-063-064-067-068-250200-
SOUTH CENTRAL WISCONSIN

CITY           SKY/WX    TMP DP  RH WIND       PRES   REMARKS
REEDSBURG      CLOUDY    33  32  96 NW6       29.56R WCI  27
BARABOO/DELLS  CLOUDY    32  32  99 NW7       29.55R WCI  26
LONE ROCK      NOT AVBL
MINERAL POINT  CLOUDY    36  32  87 W9        29.57R WCI  29
MADISON        CLOUDY    35  31  85 NW8       29.54R WCI  29
MIDDLETON      CLOUDY    36  35  97 NW8       29.55R WCI  29
WATERTOWN      CLOUDY    34  34 100 NW7       29.51S WCI  28
MONROE         CLOUDY    34  32  93 W10       29.56R WCI  26
JANESVILLE     DRIZZLE   36  34  93 NW9       29.54R WCI  29
$$

WIZ051-052-058>065-066-070>072-250200-
SOUTHEAST WISCONSIN

CITY           SKY/WX    TMP DP  RH WIND       PRES   REMARKS
MILWAUKEE      DRIZZLE   37  32  82 W12       29.51R WCI  29
WAUKESHA       DRIZZLE   34  32  93 W9        29.52R WCI  26
MILWAUKEE/TIMM NOT AVBL
RACINE         CLOUDY    37  33  85 W14       29.52R WCI  28
BURLINGTON     CLOUDY    34  32  94 NW13      29.52R WCI  25
KENOSHA        CLOUDY    37  34  89 W13       29.51R WCI  29
FOND DU LAC    CLOUDY    34  32  92 NW8       29.50S WCI  27
SHEBOYGAN      FLURRIES  34  32  92 W8        29.48R WCI  27
WEST BEND      LGT RAIN  32  32 100 W9        29.49R WCI  24
JUNEAU         CLOUDY    33  32  97 W7        29.52S WCI  27
$$

LSZ147-162-250200-
LAKE SUPERIOR

STATION/POSITION TIME  TEMP    WIND        PRES    WAVE
                       AIR SEA DIR/SP/G            HT/PER
                 (UTC) (F)     (DEG/KT/KT) (MB)    (FT/S)
DEVILS ISLAND    0000   33     230/  7/  9 1001.4F
PORT WING        0000   33     200/  3/  4 1001.4
SAXON HARBOR     0000   33        CALM     1001.4F
$$

LMZ867-665-643>646-250200-
LAKE MICHIGAN

STATION/POSITION TIME  TEMP    WIND        PRES    WAVE
                       AIR SEA DIR/SP/G            HT/PER
                 (UTC) (F)     (DEG/KT/KT) (MB)    (FT/S)
CHAMBERS ISLAND  0000   33     300/  8/ 11  998.3S
NORTHPORT PIER   0000   34     320/ 15/ 18  998.0R
SISTER BAY       0013          350/ 17/ 18   N/A
ALGOMA LAKESHORE 0015          340/ 12/ 17   N/A
KEWAUNEE LAKESHO 0000   35     330/  5/  9  997.1R
SHEBOYGAN LAKESH 0000   36 37  300/ 12/ 14  998.6R
PORT WASHINGTON  0040   36     290/  7/ 16  999.7R
MILWAUKEE LAKESH 0000   37     290/ 12/ 16   N/A
KENOSHA   LAKESH 0000   37     280/  9/ 17  999.3R
$$

TC  - TEMPERATURE IN CELSIUS
VSB - VISIBILITY IN STATUTE MILES
WCI - WIND CHILL INDEX
HX  - HEAT INDEX




USA.gov is the U.S. government's official web portal to all federal, state and local government web resources and services.